732  
ASUS41 KLWX 230011  
RWRLWX  
 
REGIONAL WEATHER ROUNDUP  
NATIONAL WEATHER SERVICE BALTIMORE MD/WASHINGTON DC  
800 PM EDT FRI JUN 22 2018  
 
NOTE: "FAIR" INDICATES FEW OR NO CLOUDS BELOW 12,000 FEET  
WITH NO SIGNIFICANT WEATHER AND/OR S TO VISIBILITY
.  
TC=TEMPERATURE CELSIUS  
 
* =NON NWS SITE. STATION DOES NOT REPORT PRECIPITATION (E.G. RAIN,  
SNOW, ETC.), THUNDER, OR FOG.
 
 
DCZ001-MDZ009-015-VAZ040>042-051-053>054-230100-  
WASHINGTON METRO  
 
CITY SKY/WX TMP DP RH WIND PRES REMARKS
 
WASHINGTON NAT CLOUDY 69 64 84 NE14 29.88F  
DULLES CLOUDY 66 65 96 E8 29.88F  
QUANTICO CLOUDY 70 68 93 E10 29.87S  
COLLEGE PARK* CLOUDY 65 63 93 NE5 29.89F  
LEESBURG* LGT RAIN 61 61 100 NE6 29.90F  
MANASSAS* CLOUDY 68 65 90 E9 29.87F  
GAITHERSBURG* CLOUDY 65 61 87 E9 29.91F  
 

 
 
MDZ006>007-011-014-230100-  
BALTIMORE METRO  
 
CITY SKY/WX TMP DP RH WIND PRES REMARKS
 
BWI AIRPORT LGT RAIN 66 63 90 E17 29.90F  
MD SCIENCE CTR N/A 67 63 87 MISG 29.92S  
MARTIN STATE CLOUDY 66 64 94 NE10G17 29.94S  
ANNAPOLIS CLOUDY 70 65 84 NE9 29.90S  
FORT MEADE* CLOUDY 64 61 88 E8 29.93F  
 

 
 
MDZ012-015-019>023-230100-  
MARYLAND EASTERN SHORE  
 
CITY SKY/WX TMP DP RH WIND PRES REMARKS
 
OCEAN CITY LGT RAIN 69 68 96 E12 29.89S FOG  
SALISBURY CLOUDY 70 68 93 E13G18 29.87S  
BAY BRIDGE AP* LGT RAIN 66 63 88 E10G17 29.90S  
CAMBRIDGE* CLOUDY 68 66 94 E10 29.87F  
EASTON* MOCLDY 68 66 94 E12G18 29.93S  
 

 
 
MDZ017>025-230100-  
SOUTHERN MARYLAND  
 
CITY SKY/WX TMP DP RH WIND PRES REMARKS
 
PATUXENT RIVER MOCLDY 73 67 81 E10 29.87R  
ST INIGOES CLOUDY 72 68 87 NE13 29.85R  
LEONARDTOWN* CLOUDY 68 64 88 E8 29.88S  
 

 
 
MDZ003>005-230100-  
NORTH CENTRAL MARYLAND  
 
CITY SKY/WX TMP DP RH WIND PRES REMARKS
 
FREDERICK* CLOUDY 66 66 100 VRB5 29.94F  
HAGERSTOWN APT CLOUDY 66 62 87 E5 29.91F  
WESTMINSTER* DRIZZLE 64 64 100 E3 29.92F  
 

 
 
MDZ501>502-230100-  
WESTERN MARYLAND  
 
CITY SKY/WX TMP DP RH WIND PRES REMARKS
 
OAKLAND* CLOUDY 57 57 100 SE15G25 29.90S VSB<1/4  
CUMBERLAND* MOCLDY 64 64 100 W3 29.92F  
 

 
 
VAZ025>031-230100-  
SHENANDOAH VALLEY  
 
CITY SKY/WX TMP DP RH WIND PRES REMARKS
 
WINCHESTER* RAIN 63 63 100 E5 29.90F  
FRONT ROYAL* CLOUDY N/A N/A N/A CALM 29.87F  
LURAY* LGT RAIN 64 64 100 N8 29.86F  
NEW MARKET* CLOUDY 65 64 96 N6 29.85S  
STAUNTON* CLOUDY 65 64 96 N5 29.89S  
WAYNESBORO* CLOUDY 64 64 100 CALM 29.88S  
 

 
 
WVZ021-048>050-054>055-230100-  
EASTERN WEST VIRGINIA PANHANDLE  
 
CITY SKY/WX TMP DP RH WIND PRES REMARKS
 
MARTINSBURG LGT RAIN 65 64 97 E8 29.89F FOG  
PETERSBURG* RAIN 64 63 97 CALM 29.88R  
 

 
 
VAZ036>039-050-230100-  
CENTRAL FOOTHILLS  
 
CITY SKY/WX TMP DP RH WIND PRES REMARKS
 
CHARLOTTESVILL CLOUDY 68 67 96 N6 29.86R FOG  
CULPEPER* DRIZZLE 68 66 95 CALM 29.87S  
ORANGE* DRIZZLE 66 64 94 NE3 29.85S  
GORDONSVILLE* CLOUDY 67 67 100 NE6 29.85R FOG  
WARRENTON* CLOUDY 68 65 89 NE7 29.86S FOG  
 

 
 
VAZ055>057-230100-  
NORTH AND CENTRAL PIEDMONT  
 
CITY SKY/WX TMP DP RH WIND PRES REMARKS
 
FREDERICKSBRG* DRIZZLE 69 69 100 NE6 29.85R  
STAFFORD* DRIZZLE 69 69 100 E7 29.90R  
 

 
 
NCZ024-NYZ072-PAZ021-071-VAZ022-071-230100-  
OTHER REGIONAL OBSERVATIONS  
 
CITY SKY/WX TMP DP RH WIND PRES REMARKS
 
NEW YORK CITY LGT RAIN 69 60 73 VRB5 30.03S  
PHILADELPHIA LGT RAIN 66 62 87 E12 29.97R  
PITTSBURGH MOCLDY 70 61 73 SE14 29.80S  
ROANOKE FAIR 71 68 90 NE7 29.84S  
RICHMOND TSTM 74 72 93 E7 29.83R FOG  
RALEIGH MOCLDY 89 68 49 SW12 29.76R HX 93  
 

 
 
ANZ530>537-230100-  
MARINE OBSERVATIONS  
 
STATION/POSITION TIME TEMP WIND PRES
 
AIR SEA DIR/SP/G  
(UTC) (F) (DEG/KT/KT) (MB)  
THOMAS PT LIGHT 0000 67 75 60/ 14/ 16 1013.2F  
BALT KEY BRIDGE 2342 67 70/ 15/ 19 1012.9R  
COVE POINT 2342 70 100/ 7/ 13 1012.3R  
LEWISETTA 2342 74 79 100/ 19/ 21 1010.6R  
SOLOMONS ISLAND 2342 72 78 80/ 16/ 18 1011.1R  
PINEY POINT 2342 90/ 9/ 11 N/A  
 

 
 
 
 
CLICK HERE TO GO TO PREVIOUS BULLETINS.

The Nexlab VA Page
The Nexlab MD Page
The Nexlab WV Page Main Text Page